User: anonymous   Login
Location: Gouy
(50.0008°N, 3.2556°E)
Time: 12:36:38
(UTC+00:00)
Language:

Cosmos 2181 Rocket - Orbit

View from above orbital plane
View from above orbital plane
View from above satellite
View from above satellite

Ground track
Ground track

The orbit data is extracted from the following two-line orbital elements,

1 21903U 92012B   24205.37632574  .00000094  00000-0  81791-4 0  9992
2 21903  82.9349  62.6945 0043989  65.3987 107.6210 13.74660171623548
Epoch (UTC): 23 July 2024 09:01:54
Eccentricity: 0.0043989
inclination: 82.9349°
perigee height: 950 km
apogee height: 1015 km
right ascension of ascending node: 62.6945°
argument of perigee: 65.3987°
revolutions per day: 13.74660171
mean anomaly at epoch: 107.6210°
orbit number at epoch: 62354

The dashed part of the orbit path shows where the satellite is in the earth's shadow,  

DLR